| time (UTC) | temp F | wind direction | speed knots | gust knots | rain 1hr in | rain 24hr in | rain mn in | humidity % | barometer mb |
| 20260904210036 | 0 | 239 | 0.0 | 4.3 | 0.00 | 0.00 | 0.00 | 1018.9 | |
| 20260904204535 | 0 | 239 | 2.6 | 4.3 | 0.00 | 0.00 | 0.00 | 1018.8 | |
| 20260904203030 | 0 | 243 | 1.7 | 4.3 | 0.00 | 0.00 | 0.00 | 1018.6 | |
| 20260904201524 | 0 | 243 | 0.0 | 0.0 | 0.00 | 0.00 | 0.00 | 1018.5 | |
| 20260904200022 | 0 | 243 | 1.7 | 5.2 | 0.00 | 0.00 | 0.00 | 1018.4 | |
| 20260904194516 | 0 | 221 | 0.0 | 3.5 | 0.00 | 0.00 | 0.00 | 1018.3 | |
| 20260904193012 | 0 | 243 | 0.0 | 4.3 | 0.00 | 0.00 | 0.00 | 1018.5 | |
| 20260904191507 | 0 | 259 | 0.0 | 2.6 | 0.00 | 0.00 | 0.00 | 1018.3 | |
| 20260904190002 | 0 | 317 | 0.9 | 4.3 | 0.00 | 0.00 | 0.00 | 1018.2 | |
| 20260904184558 | 0 | 360 | 0.0 | 5.2 | 0.00 | 0.00 | 0.00 | 1018.3 | |
| 20260904183109 | 0 | 14 | 0.0 | 7.8 | 0.00 | 0.00 | 0.00 | 1018.2 | |
| 20260904181549 | 0 | 24 | 2.6 | 7.8 | 0.00 | 0.00 | 0.00 | 1018.2 | |
| 20260904180047 | 0 | 360 | 4.3 | 7.8 | 0.00 | 0.00 | 0.00 | 1018.1 | |
| 20260904174543 | 0 | 41 | 2.6 | 13.0 | 0.00 | 0.00 | 0.00 | 1018.2 | |
| 20260904173038 | 0 | 1 | 4.3 | 11.3 | 0.00 | 0.00 | 0.00 | 1018.2 | |
| 20260904171540 | 0 | 41 | 9.6 | 14.8 | 0.00 | 0.00 | 0.00 | 1018.2 | |
| 20260904170029 | 0 | 32 | 11.3 | 16.5 | 0.00 | 0.00 | 0.00 | 1018.1 | |
| 20260904164524 | 0 | 36 | 10.4 | 13.0 | 0.00 | 0.00 | 0.00 | 1018.1 | |
| 20260904163020 | 0 | 21 | 7.8 | 15.6 | 0.00 | 0.00 | 0.00 | 1017.9 | |
| 20260904161515 | 0 | 17 | 8.7 | 14.8 | 0.00 | 0.00 | 0.00 | 1017.8 | |
| 20260904160012 | 0 | 23 | 7.0 | 10.4 | 0.00 | 0.00 | 0.00 | 1017.9 | |
| 20260904154507 | 0 | 12 | 6.1 | 12.2 | 0.00 | 0.00 | 0.00 | 1018.0 | |
| 20260904153002 | 0 | 51 | 4.3 | 8.7 | 0.00 | 0.00 | 0.00 | 1018.1 | |
| 20260904151557 | 0 | 346 | 5.2 | 10.4 | 0.00 | 0.00 | 0.00 | 1018.3 | |
| 20260904150053 | 0 | 58 | 6.1 | 9.6 | 0.00 | 0.00 | 0.00 | 1018.2 | |
| 20260904144548 | 0 | 302 | 3.5 | 8.7 | 0.00 | 0.00 | 0.00 | 1018.4 | |
| 20260904143044 | 0 | 11 | 5.2 | 10.4 | 0.00 | 0.00 | 0.00 | 1018.4 | |
| 20260904141542 | 0 | 23 | 9.6 | 12.2 | 0.00 | 0.00 | 0.00 | 1018.5 | |
| 20260904140043 | 0 | 5 | 4.3 | 13.0 | 0.00 | 0.00 | 0.00 | 1018.6 | |
| 20260904134542 | 0 | 36 | 5.2 | 9.6 | 0.00 | 0.00 | 0.00 | 1018.8 | |
| 20260904133046 | 0 | 25 | 5.2 | 9.6 | 0.00 | 0.00 | 0.00 | 1018.9 | |
| 20260904131546 | 0 | 15 | 3.5 | 8.7 | 0.00 | 0.00 | 0.00 | 1018.9 | |
| 20260904130033 | 0 | 30 | 5.2 | 8.7 | 0.00 | 0.00 | 0.00 | 1018.9 | |
| 20260904124529 | 0 | 13 | 4.3 | 11.3 | 0.00 | 0.00 | 0.00 | 1019.2 | |
| 20260904123024 | 0 | 6 | 7.0 | 10.4 | 0.00 | 0.00 | 0.00 | 1019.3 | |
| 20260904121520 | 0 | 19 | 3.5 | 7.8 | 0.00 | 0.00 | 0.00 | 1019.4 | |
| 20260904120020 | 0 | 31 | 5.2 | 11.3 | 0.00 | 0.00 | 0.00 | 1019.4 | |
| 20260904114511 | 0 | 36 | 6.1 | 10.4 | 0.00 | 0.00 | 0.00 | 1019.5 | |
| 20260904113019 | 0 | 19 | 6.1 | 9.6 | 0.00 | 0.00 | 0.00 | 1019.7 | |
| 20260904111502 | 0 | 10 | 3.5 | 7.8 | 0.00 | 0.00 | 0.00 | 1019.9 | |
| 20260904104559 | 0 | 355 | 4.3 | 7.8 | 0.00 | 0.00 | 0.00 | 1019.6 | |
| 20260904103057 | 0 | 284 | 0.9 | 3.5 | 0.00 | 0.00 | 0.00 | 1019.7 | |
| 20260904101552 | 0 | 254 | 0.0 | 0.0 | 0.00 | 0.00 | 0.00 | 1019.8 | |
| 20260904100045 | 0 | 254 | 0.0 | 0.0 | 0.00 | 0.00 | 0.00 | 1019.7 | |
| 20260904094556 | 0 | 254 | 1.7 | 2.6 | 0.00 | 0.00 | 0.00 | 1019.6 | |
| 20260904093035 | 0 | 254 | 0.0 | 0.0 | 0.00 | 0.00 | 0.00 | 1019.7 | |
| 20260904091530 | 0 | 254 | 0.0 | 2.6 | 0.00 | 0.00 | 0.00 | 1019.8 | |
| 20260904090025 | 0 | 254 | 1.7 | 3.5 | 0.00 | 0.00 | 0.00 | 1019.7 | |
| 20260904084521 | 0 | 254 | 1.7 | 3.5 | 0.00 | 0.00 | 0.00 | 1019.5 | |
| 20260904083031 | 0 | 254 | 0.0 | 2.6 | 0.00 | 0.00 | 0.00 | 1019.4 | |
| 20260904081513 | 0 | 254 | 0.0 | 0.0 | 0.00 | 0.00 | 0.00 | 1019.4 | |
| 20260904080008 | 0 | 254 | 0.0 | 0.0 | 0.00 | 0.00 | 0.00 | 1019.3 | |
| 20260904074503 | 0 | 254 | 0.0 | 0.0 | 0.00 | 0.00 | 0.00 | 1019.4 | |
| 20260904073115 | 0 | 254 | 0.0 | 0.0 | 0.00 | 0.00 | 0.00 | 1019.2 | |
| 20260904071555 | 0 | 254 | 0.0 | 0.0 | 0.00 | 0.00 | 0.00 | 1019.0 | |
| 20260904070051 | 0 | 254 | 0.0 | 0.0 | 0.00 | 0.00 | 0.00 | 1019.0 | |
| 20260904064547 | 0 | 254 | 0.0 | 0.0 | 0.00 | 0.00 | 0.00 | 1019.1 | |
| 20260904063045 | 0 | 254 | 0.0 | 0.0 | 0.00 | 0.00 | 0.00 | 1019.0 | |
| 20260904061537 | 0 | 254 | 0.0 | 1.7 | 0.00 | 0.00 | 0.00 | 1018.7 | |
| 20260904060051 | 0 | 254 | 0.9 | 3.5 | 0.00 | 0.00 | 0.00 | 1018.8 | |
| 20260904054540 | 0 | 254 | 2.6 | 4.3 | 0.00 | 0.00 | 0.00 | 1018.9 | |
| 20260904053033 | 0 | 254 | 2.6 | 4.3 | 0.00 | 0.00 | 0.00 | 1018.8 | |
| 20260904051516 | 0 | 254 | 1.7 | 3.5 | 0.00 | 0.00 | 0.00 | 1018.9 | |
| 20260904050027 | 0 | 254 | 0.0 | 0.0 | 0.00 | 0.00 | 0.00 | 1018.8 | |
| 20260904044507 | 0 | 254 | 0.0 | 0.0 | 0.00 | 0.00 | 0.00 | 1018.7 | |
| 20260904043104 | 0 | 254 | 0.0 | 0.0 | 0.00 | 0.00 | 0.00 | 1018.6 | |
| 20260904041604 | 0 | 254 | 0.0 | 1.7 | 0.00 | 0.00 | 0.00 | 1018.5 | |
| 20260904040050 | 0 | 254 | 1.7 | 2.6 | 0.00 | 0.00 | 0.00 | 1018.4 | |
| 20260904034536 | 0 | 254 | 0.0 | 0.0 | 0.00 | 0.00 | 0.00 | 1018.5 | |
| 20260904033027 | 0 | 254 | 0.0 | 0.0 | 0.00 | 0.00 | 0.00 | 1018.7 | |
| 20260904031521 | 0 | 254 | 0.0 | 0.0 | 0.00 | 0.00 | 0.00 | 1018.7 | |
| 20260904030019 | 0 | 254 | 0.9 | 2.6 | 0.00 | 0.00 | 0.00 | 1018.7 | |
| 20260904024521 | 0 | 254 | 0.9 | 1.7 | 0.00 | 0.00 | 0.00 | 1018.8 | |
| 20260904023007 | 0 | 254 | 0.9 | 2.6 | 0.00 | 0.00 | 0.00 | 1018.8 | |
| 20260904021507 | 0 | 254 | 1.7 | 3.5 | 0.00 | 0.00 | 0.00 | 1019.2 | |
| 20260904014617 | 0 | 254 | 0.0 | 0.0 | 0.00 | 0.00 | 0.00 | 1019.6 | |
| 20260904013105 | 0 | 254 | 0.0 | 0.0 | 0.00 | 0.00 | 0.00 | 1019.7 | |
| 20260904011545 | 0 | 254 | 0.0 | 0.0 | 0.00 | 0.00 | 0.00 | 1019.8 | |
| 20260904010041 | 0 | 254 | 0.0 | 0.0 | 0.00 | 0.00 | 0.00 | 1019.8 | |
| 20260904004538 | 0 | 254 | 0.0 | 0.0 | 0.00 | 0.00 | 0.00 | 1019.8 | |
| 20260904003035 | 0 | 254 | 0.0 | 2.6 | 0.00 | 0.00 | 0.00 | 1019.9 | |
| 20260904001627 | 0 | 254 | 1.7 | 2.6 | 0.00 | 0.00 | 0.00 | 1020.1 | |
| 20260904000024 | 0 | 254 | 0.0 | 0.0 | 0.00 | 0.00 | 0.00 | 1020.3 | |
| 20260903234531 | 0 | 254 | 0.0 | 0.0 | 0.00 | 0.00 | 0.00 | 1020.3 | |
| 20260903233028 | 0 | 254 | 0.0 | 0.0 | 0.00 | 0.00 | 0.00 | 1020.2 | |
| 20260903231510 | 0 | 254 | 0.0 | 0.0 | 0.00 | 0.00 | 0.00 | 1020.2 | |
| 20260903230107 | 0 | 254 | 0.0 | 0.0 | 0.00 | 0.00 | 0.00 | 1020.2 | |
| 20260903224505 | 0 | 254 | 0.0 | 1.7 | 0.00 | 0.00 | 0.00 | 1020.2 | |
| 20260903223002 | 0 | 254 | 1.7 | 2.6 | 0.00 | 0.00 | 0.00 | 1020.3 | |
| 20260903221557 | 0 | 254 | 0.0 | 0.0 | 0.00 | 0.00 | 0.00 | 1020.5 | |
| 20260903220052 | 0 | 254 | 0.0 | 0.0 | 0.00 | 0.00 | 0.00 | 1020.4 | |
| 20260903214551 | 0 | 254 | 0.0 | 2.6 | 0.00 | 0.00 | 0.00 | 1020.2 | |
| 20260903213045 | 0 | 254 | 1.7 | 3.5 | 0.00 | 0.00 | 0.00 | 1020.1 | |
| 20260903211553 | 0 | 254 | 0.0 | 0.0 | 0.00 | 0.00 | 0.00 | 1020.0 |